KLM2505 MKJP-TNCC

Flight info

Callsign KLM2505
Flight time 1h 19m
Altitude 37000
Route AMEKO2 AMEKO DCT AMBIN UL332 ABA DCT ADRIV ARUB1B RNV11
Aircraft B763/H-SDE3FGHIM3RWXY/LB1

Departure

Time 2026-04-25 02:37
Airport Norman Manley International Airport (MKJP)

Arrival

Time 2026-04-25 03:56
Airport Hato International Airport (TNCC)
Time Latitude Longitude Altitude Speed Heading
2026-04-25 02:26 17.93671 -76.77469 24 ft 0 kts 130°
2026-04-25 02:27 17.93671 -76.77468 24 ft 0 kts 130°
2026-04-25 02:27 17.93670 -76.77468 24 ft 0 kts 130°
2026-04-25 02:28 17.93672 -76.77471 24 ft 2 kts 130°
2026-04-25 02:28 17.93668 -76.77471 24 ft 3 kts 162°
2026-04-25 02:29 17.93643 -76.77489 24 ft 6 kts 251°
2026-04-25 02:29 17.93629 -76.77531 24 ft 7 kts 242°
2026-04-25 02:29 17.93578 -76.77592 24 ft 16 kts 225°
2026-04-25 02:29 17.93510 -76.77676 24 ft 14 kts 233°
2026-04-25 02:30 17.93453 -76.77752 24 ft 8 kts 219°
2026-04-25 02:30 17.93441 -76.77760 24 ft 0 kts 211°
2026-04-25 02:31 17.93441 -76.77761 24 ft 0 kts 211°
2026-04-25 02:32 17.93427 -76.77769 24 ft 7 kts 211°
2026-04-25 02:32 17.93389 -76.77786 24 ft 6 kts 200°
2026-04-25 02:32 17.93334 -76.77798 24 ft 8 kts 166°
2026-04-25 02:32 17.93293 -76.77779 24 ft 10 kts 194°
2026-04-25 02:33 17.93281 -76.77821 24 ft 6 kts 314°
2026-04-25 02:33 17.93367 -76.77929 24 ft 38 kts 296°
2026-04-25 02:33 17.93491 -76.78245 24 ft 46 kts 293°
2026-04-25 02:33 17.93602 -76.78536 24 ft 40 kts 291°
2026-04-25 02:34 17.93702 -76.78795 24 ft 36 kts 292°
2026-04-25 02:34 17.93793 -76.79029 24 ft 33 kts 292°
2026-04-25 02:34 17.93849 -76.79175 24 ft 32 kts 292°
2026-04-25 02:34 17.93929 -76.79382 24 ft 29 kts 292°
2026-04-25 02:35 17.94027 -76.79634 24 ft 27 kts 292°
2026-04-25 02:35 17.94092 -76.79809 24 ft 25 kts 282°
2026-04-25 02:35 17.94052 -76.79902 24 ft 12 kts 201°
2026-04-25 02:35 17.94010 -76.79892 24 ft 9 kts 124°
2026-04-25 02:36 17.94002 -76.79876 24 ft 0 kts 112°
2026-04-25 02:36 17.93973 -76.79801 24 ft 44 kts 112°
2026-04-25 02:36 17.93731 -76.79177 24 ft 137 kts 112°
2026-04-25 02:37 17.93280 -76.78011 282 ft 193 kts 112°
2026-04-25 02:37 17.92757 -76.76685 1161 ft 200 kts 113°
2026-04-25 02:37 17.92129 -76.75360 1961 ft 204 kts 118°
2026-04-25 02:37 17.91436 -76.74047 2761 ft 211 kts 119°
2026-04-25 02:38 17.90668 -76.72611 3360 ft 239 kts 119°
2026-04-25 02:38 17.89811 -76.71015 4118 ft 260 kts 118°
2026-04-25 02:38 17.88912 -76.69340 5043 ft 272 kts 119°
2026-04-25 02:38 17.87956 -76.67551 5990 ft 285 kts 120°
2026-04-25 02:39 17.86980 -76.65706 7085 ft 291 kts 121°
2026-04-25 02:39 17.86000 -76.63830 8179 ft 296 kts 121°
2026-04-25 02:39 17.85004 -76.61912 9259 ft 301 kts 120°
2026-04-25 02:39 17.84002 -76.59961 10309 ft 308 kts 120°
2026-04-25 02:40 17.82979 -76.57937 10943 ft 330 kts 120°
2026-04-25 02:40 17.81884 -76.55717 11444 ft 354 kts 118°
2026-04-25 02:40 17.80632 -76.53429 12153 ft 367 kts 125°
2026-04-25 02:40 17.79063 -76.51281 13074 ft 373 kts 132°
2026-04-25 02:41 17.77346 -76.49208 14073 ft 378 kts 134°
2026-04-25 02:41 17.75582 -76.47140 15042 ft 382 kts 134°
2026-04-25 02:41 17.73792 -76.45052 15962 ft 387 kts 134°
2026-04-25 02:41 17.71971 -76.42942 16843 ft 393 kts 134°
2026-04-25 02:42 17.70127 -76.40798 17699 ft 398 kts 134°
2026-04-25 02:42 17.68304 -76.38628 18529 ft 404 kts 134°
2026-04-25 02:42 17.66439 -76.36395 19349 ft 409 kts 133°
2026-04-25 02:42 17.64555 -76.34126 20148 ft 414 kts 133°
2026-04-25 02:43 17.62653 -76.31838 20926 ft 419 kts 133°
2026-04-25 02:43 17.60724 -76.29526 21688 ft 423 kts 133°
2026-04-25 02:43 17.58779 -76.27177 22428 ft 428 kts 133°
2026-04-25 02:43 17.56819 -76.24801 23144 ft 432 kts 133°
2026-04-25 02:44 17.54859 -76.22443 23828 ft 437 kts 133°
2026-04-25 02:44 17.52849 -76.20030 24505 ft 441 kts 133°
2026-04-25 02:44 17.50835 -76.17571 25163 ft 446 kts 133°
2026-04-25 02:44 17.48815 -76.15085 25799 ft 450 kts 132°
2026-04-25 02:45 17.46768 -76.12575 26413 ft 454 kts 133°
2026-04-25 02:45 17.44691 -76.10059 27007 ft 458 kts 133°
2026-04-25 02:45 17.42594 -76.07524 27580 ft 462 kts 133°
2026-04-25 02:45 17.40489 -76.04959 28133 ft 466 kts 133°
2026-04-25 02:46 17.38400 -76.02412 28659 ft 469 kts 133°
2026-04-25 02:46 17.36230 -75.99770 29182 ft 473 kts 133°
2026-04-25 02:46 17.34117 -75.97174 29671 ft 477 kts 132°
2026-04-25 02:46 17.31959 -75.94522 30144 ft 480 kts 132°
2026-04-25 02:47 17.29786 -75.91849 30593 ft 483 kts 132°
2026-04-25 02:47 17.27589 -75.89185 31117 ft 483 kts 133°
2026-04-25 02:47 17.25375 -75.86553 31699 ft 482 kts 133°
2026-04-25 02:47 17.23160 -75.83927 32277 ft 480 kts 133°
2026-04-25 02:48 17.20961 -75.81306 32837 ft 478 kts 133°
2026-04-25 02:48 17.18760 -75.78695 33369 ft 477 kts 133°
2026-04-25 02:48 17.16568 -75.76087 33872 ft 476 kts 133°
2026-04-25 02:48 17.14393 -75.73483 34348 ft 475 kts 133°
2026-04-25 02:49 17.12258 -75.70904 34797 ft 474 kts 133°
2026-04-25 02:49 17.10091 -75.68273 35236 ft 473 kts 133°
2026-04-25 02:49 17.07956 -75.65701 35649 ft 472 kts 133°
2026-04-25 02:49 17.05794 -75.63113 36049 ft 471 kts 133°
2026-04-25 02:50 17.03627 -75.60540 36420 ft 471 kts 133°
2026-04-25 02:50 17.01455 -75.57979 36745 ft 471 kts 134°
2026-04-25 02:50 16.99263 -75.55405 36919 ft 475 kts 134°
2026-04-25 02:51 16.94879 -75.50139 37002 ft 477 kts 133°
2026-04-25 02:51 16.90606 -75.44953 37005 ft 474 kts 133°
2026-04-25 02:52 16.86232 -75.39663 37005 ft 486 kts 133°
2026-04-25 02:52 16.81775 -75.34242 37004 ft 495 kts 133°
2026-04-25 02:53 16.77271 -75.28777 37004 ft 496 kts 133°
2026-04-25 02:53 16.72721 -75.23399 37005 ft 495 kts 134°
2026-04-25 02:54 16.68147 -75.18043 37005 ft 495 kts 133°
2026-04-25 02:54 16.63557 -75.12672 37005 ft 495 kts 134°
2026-04-25 02:55 16.58997 -75.07265 37004 ft 495 kts 133°
2026-04-25 02:55 16.54533 -75.01849 37003 ft 495 kts 133°
2026-04-25 02:56 16.50091 -74.96484 37003 ft 495 kts 133°
2026-04-25 02:56 16.45570 -74.91051 37003 ft 495 kts 133°
2026-04-25 02:57 16.41054 -74.85639 37003 ft 495 kts 133°
2026-04-25 02:57 16.36499 -74.80296 37002 ft 495 kts 133°
2026-04-25 02:58 16.31958 -74.74902 37001 ft 495 kts 133°
2026-04-25 02:58 16.27429 -74.69497 37001 ft 495 kts 133°
2026-04-25 02:59 16.22849 -74.64106 37001 ft 495 kts 134°
2026-04-25 02:59 16.18281 -74.58800 37001 ft 495 kts 134°
2026-04-25 03:00 16.13683 -74.53460 37001 ft 495 kts 134°
2026-04-25 03:00 16.09127 -74.48083 37001 ft 495 kts 133°
2026-04-25 03:01 16.04613 -74.42661 37000 ft 495 kts 133°
2026-04-25 03:01 16.00099 -74.37238 36999 ft 495 kts 133°
2026-04-25 03:02 15.95599 -74.31866 36999 ft 495 kts 133°
2026-04-25 03:02 15.91045 -74.26475 36999 ft 495 kts 134°
2026-04-25 03:03 15.86439 -74.21141 36999 ft 495 kts 134°
2026-04-25 03:03 15.81844 -74.15838 36999 ft 495 kts 134°
2026-04-25 03:04 15.77247 -74.10510 36999 ft 495 kts 134°
2026-04-25 03:04 15.72735 -74.05140 36999 ft 496 kts 133°
2026-04-25 03:05 15.65999 -73.96971 36998 ft 496 kts 131°
2026-04-25 03:05 15.61696 -73.91365 36998 ft 496 kts 129°
2026-04-25 03:06 15.57476 -73.85735 36998 ft 496 kts 129°
2026-04-25 03:06 15.53227 -73.80085 36997 ft 496 kts 130°
2026-04-25 03:07 15.48983 -73.74466 36998 ft 496 kts 130°
2026-04-25 03:07 15.44681 -73.68870 36997 ft 496 kts 131°
2026-04-25 03:08 15.40324 -73.63315 36998 ft 496 kts 131°
2026-04-25 03:08 15.35980 -73.57761 36998 ft 496 kts 130°
2026-04-25 03:09 15.31706 -73.52199 36997 ft 496 kts 130°
2026-04-25 03:09 15.27457 -73.46551 36997 ft 496 kts 130°
2026-04-25 03:10 15.23195 -73.40926 36996 ft 496 kts 130°
2026-04-25 03:10 15.18952 -73.35351 36996 ft 496 kts 130°
2026-04-25 03:11 15.14612 -73.29791 36996 ft 496 kts 131°
2026-04-25 03:11 15.10253 -73.24259 36995 ft 496 kts 130°
2026-04-25 03:12 15.05967 -73.18638 36995 ft 496 kts 130°
2026-04-25 03:12 15.01724 -73.13061 36995 ft 496 kts 130°
2026-04-25 03:13 14.97427 -73.07479 36994 ft 496 kts 131°
2026-04-25 03:13 14.93057 -73.01936 36995 ft 496 kts 131°
2026-04-25 03:14 14.88735 -72.96425 36994 ft 496 kts 131°
2026-04-25 03:14 14.84364 -72.90896 36994 ft 496 kts 131°
2026-04-25 03:15 14.80067 -72.85306 36993 ft 496 kts 130°
2026-04-25 03:15 14.75807 -72.79726 36993 ft 496 kts 130°
2026-04-25 03:16 14.71488 -72.74142 36993 ft 496 kts 130°
2026-04-25 03:16 14.67215 -72.68590 36993 ft 496 kts 130°
2026-04-25 03:17 14.62905 -72.63014 36993 ft 496 kts 131°
2026-04-25 03:17 14.58516 -72.57510 36993 ft 496 kts 131°
2026-04-25 03:18 14.54159 -72.51967 36993 ft 496 kts 130°
2026-04-25 03:18 14.49863 -72.46436 36992 ft 496 kts 130°
2026-04-25 03:19 14.45589 -72.40816 36992 ft 497 kts 129°
2026-04-25 03:19 14.41356 -72.35172 36991 ft 497 kts 129°
2026-04-25 03:20 14.37123 -72.29586 36991 ft 496 kts 130°
2026-04-25 03:20 14.32802 -72.24032 36991 ft 496 kts 131°
2026-04-25 03:21 14.28439 -72.18513 36990 ft 496 kts 131°
2026-04-25 03:21 14.24111 -72.12963 36990 ft 496 kts 130°
2026-04-25 03:22 14.20517 -72.08359 36989 ft 496 kts 131°
2026-04-25 03:22 14.16180 -72.02813 36989 ft 496 kts 131°
2026-04-25 03:23 14.11860 -71.97267 36988 ft 496 kts 130°
2026-04-25 03:23 14.07527 -71.91730 36988 ft 496 kts 130°
2026-04-25 03:24 14.03191 -71.86200 36988 ft 496 kts 131°
2026-04-25 03:24 13.98848 -71.80730 36988 ft 496 kts 131°
2026-04-25 03:25 13.94471 -71.75227 36988 ft 496 kts 130°
2026-04-25 03:25 13.90167 -71.69669 36987 ft 496 kts 130°
2026-04-25 03:26 13.85869 -71.64098 36987 ft 496 kts 130°
2026-04-25 03:26 13.81569 -71.58595 36987 ft 496 kts 130°
2026-04-25 03:27 13.77254 -71.53034 36987 ft 496 kts 130°
2026-04-25 03:27 13.72898 -71.47508 36986 ft 496 kts 131°
2026-04-25 03:28 13.68499 -71.42043 36986 ft 496 kts 131°
2026-04-25 03:28 13.64135 -71.36608 36986 ft 496 kts 131°
2026-04-25 03:29 13.59781 -71.31100 36985 ft 496 kts 130°
2026-04-25 03:29 13.55443 -71.25518 36985 ft 496 kts 130°
2026-04-25 03:30 13.51165 -71.20025 36985 ft 496 kts 130°
2026-04-25 03:30 13.46840 -71.14477 36985 ft 496 kts 130°
2026-04-25 03:31 13.42494 -71.08966 36985 ft 496 kts 131°
2026-04-25 03:31 13.38089 -71.03516 36986 ft 496 kts 132°
2026-04-25 03:32 13.33672 -70.98067 36701 ft 497 kts 131°
2026-04-25 03:32 13.31475 -70.95325 36384 ft 493 kts 131°
2026-04-25 03:32 13.29307 -70.92607 36078 ft 489 kts 131°
2026-04-25 03:33 13.27186 -70.89941 35778 ft 485 kts 131°
2026-04-25 03:33 13.25060 -70.87264 35477 ft 482 kts 131°
2026-04-25 03:33 13.22942 -70.84595 35176 ft 482 kts 131°
2026-04-25 03:33 13.20797 -70.81891 34874 ft 493 kts 131°
2026-04-25 03:34 13.18618 -70.79137 34574 ft 501 kts 131°
2026-04-25 03:34 13.16432 -70.76352 34274 ft 502 kts 130°
2026-04-25 03:34 13.14243 -70.73556 33973 ft 502 kts 130°
2026-04-25 03:34 13.12057 -70.70777 33672 ft 500 kts 130°
2026-04-25 03:35 13.09868 -70.68006 33370 ft 498 kts 131°
2026-04-25 03:35 13.07680 -70.65262 33069 ft 495 kts 131°
2026-04-25 03:35 13.05475 -70.62555 32767 ft 493 kts 132°
2026-04-25 03:35 13.03255 -70.59854 32466 ft 497 kts 132°
2026-04-25 03:36 13.01057 -70.57162 32169 ft 500 kts 131°
2026-04-25 03:36 12.98854 -70.54406 31863 ft 500 kts 131°
2026-04-25 03:36 12.96646 -70.51650 31457 ft 499 kts 131°
2026-04-25 03:36 12.94449 -70.48908 31012 ft 496 kts 131°
2026-04-25 03:37 12.92279 -70.46173 30562 ft 492 kts 131°
2026-04-25 03:37 12.90124 -70.43448 30110 ft 488 kts 131°
2026-04-25 03:37 12.87979 -70.40761 29658 ft 485 kts 131°
2026-04-25 03:37 12.85844 -70.38097 29206 ft 482 kts 131°
2026-04-25 03:38 12.83731 -70.35441 28754 ft 479 kts 131°
2026-04-25 03:38 12.81616 -70.32763 28301 ft 491 kts 131°
2026-04-25 03:38 12.79425 -70.30012 27698 ft 503 kts 131°
2026-04-25 03:38 12.77184 -70.27257 26969 ft 504 kts 132°
2026-04-25 03:39 12.74958 -70.24550 26230 ft 501 kts 132°
2026-04-25 03:39 12.72724 -70.21835 25479 ft 496 kts 132°
2026-04-25 03:39 12.70512 -70.19145 24726 ft 491 kts 132°
2026-04-25 03:39 12.68304 -70.16444 23964 ft 486 kts 131°
2026-04-25 03:40 12.66183 -70.13831 23221 ft 481 kts 131°
2026-04-25 03:40 12.64088 -70.11197 22470 ft 476 kts 131°
2026-04-25 03:40 12.62018 -70.08561 21714 ft 471 kts 131°
2026-04-25 03:40 12.59972 -70.05966 20961 ft 465 kts 131°
2026-04-25 03:41 12.57950 -70.03418 20276 ft 459 kts 131°
2026-04-25 03:41 12.55946 -70.00901 19639 ft 451 kts 131°
2026-04-25 03:41 12.53966 -69.98439 19010 ft 443 kts 131°
2026-04-25 03:41 12.52013 -69.96032 18382 ft 436 kts 132°
2026-04-25 03:42 12.50263 -69.93516 17753 ft 432 kts 121°
2026-04-25 03:42 12.49078 -69.90714 17128 ft 428 kts 111°
2026-04-25 03:42 12.48172 -69.87827 16502 ft 423 kts 108°
2026-04-25 03:42 12.47330 -69.84965 15959 ft 417 kts 108°
2026-04-25 03:43 12.46509 -69.82149 15452 ft 409 kts 107°
2026-04-25 03:43 12.45692 -69.79387 14950 ft 403 kts 108°
2026-04-25 03:43 12.44845 -69.76672 14449 ft 397 kts 109°
2026-04-25 03:43 12.44010 -69.74053 14072 ft 388 kts 109°
2026-04-25 03:44 12.43180 -69.71463 13759 ft 378 kts 109°
2026-04-25 03:44 12.42364 -69.68938 13457 ft 369 kts 109°
2026-04-25 03:44 12.41566 -69.66471 13135 ft 359 kts 109°
2026-04-25 03:44 12.40795 -69.64102 12718 ft 345 kts 110°
2026-04-25 03:45 12.40028 -69.61814 12228 ft 335 kts 110°
2026-04-25 03:45 12.39255 -69.59595 11729 ft 327 kts 111°
2026-04-25 03:45 12.38491 -69.57432 11228 ft 320 kts 111°
2026-04-25 03:45 12.37742 -69.55313 10719 ft 312 kts 111°
2026-04-25 03:46 12.37007 -69.53251 10143 ft 306 kts 111°
2026-04-25 03:46 12.36262 -69.51234 9631 ft 298 kts 112°
2026-04-25 03:46 12.35540 -69.49301 9178 ft 291 kts 112°
2026-04-25 03:46 12.34829 -69.47398 8776 ft 281 kts 112°
2026-04-25 03:47 12.34142 -69.45557 8397 ft 273 kts 112°
2026-04-25 03:47 12.33479 -69.43780 8022 ft 263 kts 112°
2026-04-25 03:47 12.32832 -69.42046 7676 ft 259 kts 112°
2026-04-25 03:47 12.32191 -69.40332 7323 ft 256 kts 112°
2026-04-25 03:48 12.31557 -69.38638 6971 ft 254 kts 112°
2026-04-25 03:48 12.30929 -69.36962 6619 ft 251 kts 112°
2026-04-25 03:48 12.30304 -69.35297 6255 ft 249 kts 112°
2026-04-25 03:48 12.29691 -69.33669 5918 ft 247 kts 112°
2026-04-25 03:49 12.29080 -69.32053 5652 ft 241 kts 112°
2026-04-25 03:49 12.28480 -69.30470 5405 ft 236 kts 111°
2026-04-25 03:49 12.27890 -69.28912 5107 ft 234 kts 111°
2026-04-25 03:49 12.27325 -69.27359 4785 ft 232 kts 110°
2026-04-25 03:50 12.26775 -69.25815 4460 ft 230 kts 109°
2026-04-25 03:50 12.26230 -69.24281 4137 ft 228 kts 109°
2026-04-25 03:50 12.25697 -69.22781 3835 ft 226 kts 109°
2026-04-25 03:50 12.25161 -69.21267 3532 ft 223 kts 109°
2026-04-25 03:51 12.24642 -69.19800 3269 ft 219 kts 109°
2026-04-25 03:51 12.24127 -69.18342 3017 ft 217 kts 108°
2026-04-25 03:51 12.23584 -69.16911 2766 ft 216 kts 111°
2026-04-25 03:51 12.23074 -69.15488 2581 ft 208 kts 108°
2026-04-25 03:52 12.22656 -69.14116 2522 ft 196 kts 105°
2026-04-25 03:52 12.22306 -69.12788 2504 ft 192 kts 103°
2026-04-25 03:52 12.22031 -69.11472 2498 ft 184 kts 99°
2026-04-25 03:52 12.21816 -69.10199 2498 ft 181 kts 98°
2026-04-25 03:53 12.21597 -69.08971 2443 ft 168 kts 98°
2026-04-25 03:53 12.21396 -69.07832 2213 ft 163 kts 99°
2026-04-25 03:53 12.21170 -69.06717 1980 ft 157 kts 100°
2026-04-25 03:53 12.20934 -69.05633 1777 ft 156 kts 101°
2026-04-25 03:54 12.20701 -69.04553 1573 ft 155 kts 101°
2026-04-25 03:54 12.20472 -69.03479 1366 ft 154 kts 101°
2026-04-25 03:54 12.20248 -69.02412 1162 ft 153 kts 101°
2026-04-25 03:54 12.20025 -69.01353 959 ft 151 kts 101°
2026-04-25 03:55 12.19804 -69.00312 760 ft 149 kts 102°
2026-04-25 03:55 12.19590 -68.99289 563 ft 148 kts 102°
2026-04-25 03:55 12.19378 -68.98269 369 ft 143 kts 102°
2026-04-25 03:55 12.19176 -68.97296 176 ft 135 kts 102°
2026-04-25 03:56 12.18984 -68.96419 48 ft 115 kts 102°
2026-04-25 03:56 12.18835 -68.95717 43 ft 86 kts 102°
2026-04-25 03:56 12.18740 -68.95268 43 ft 48 kts 102°
2026-04-25 03:56 12.18677 -68.94961 43 ft 41 kts 102°
2026-04-25 03:57 12.18621 -68.94693 43 ft 35 kts 102°
2026-04-25 03:57 12.18584 -68.94520 43 ft 15 kts 102°
2026-04-25 03:57 12.18549 -68.94463 43 ft 10 kts 157°
2026-04-25 03:57 12.18472 -68.94467 43 ft 11 kts 192°
2026-04-25 03:58 12.18412 -68.94502 43 ft 10 kts 251°
2026-04-25 03:58 12.18435 -68.94658 43 ft 44 kts 281°
2026-04-25 03:58 12.18521 -68.95075 43 ft 60 kts 282°
2026-04-25 03:58 12.18603 -68.95457 43 ft 51 kts 282°
2026-04-25 03:59 12.18652 -68.95690 43 ft 21 kts 282°
2026-04-25 03:59 12.18660 -68.95770 43 ft 8 kts 241°
2026-04-25 03:59 12.18618 -68.95785 43 ft 7 kts 192°
2026-04-25 03:59 12.18556 -68.95799 43 ft 7 kts 193°
2026-04-25 04:00 12.18554 -68.95799 43 ft 0 kts 193°